Regional Weather Roundup
Issued by NWS Cleveland, OH

Home | Current Version | Previous Version | Graphics & Text | Print | Product List | Glossary On
Versions: 1 2 3 4 5 6 7 8 9 10 11 12 13 14 15 16 17 18 19 20 21 22 23 24 25 26 27 28 29 30 31 32 33 34 35 36 37 38 39 40 41 42 43 44 45 46 47 48 49 50
000
ASUS41 KCLE 230110
RWRCLE
OHIO REGIONAL WEATHER ROUNDUP
NATIONAL WEATHER SERVICE CLEVELAND, OH
900 PM EDT SAT JUL 22 2017

NOTE: "FAIR" INDICATES FEW OR NO CLOUDS BELOW 12,000 FEET WITH NO
SIGNIFICANT WEATHER AND/OR OBSTRUCTIONS TO VISIBILITY.

OHZ001>008-015>018-024>027-034-035-043-044-230200-
   NORTHWEST OHIO

CITY           SKY/WX    TMP DP  RH WIND       PRES   REMARKS
DEFIANCE       MOCLDY   N/A N/A N/A CALM      29.79S
FINDLAY        CLEAR     79  70  74 W6        29.80R
TOLEDO EXPRESS CLEAR     79  71  76 W6        29.77S
TOLEDO EXEC    CLOUDY    82  71  69 NW6       29.78R
LIMA           PTCLDY    78  72  81 W8        29.82R
$$

OHZ009>014-019>023-028>033-038-089-230200-
   NORTHEAST OHIO

CITY           SKY/WX    TMP DP  RH WIND       PRES   REMARKS
CLE-HOPKINS    MOCLDY    82  72  71 SW5       29.79R
CLE-LAKEFRONT  MOCLDY    80  71  74 CALM      29.76R
CUY CO. ARPT   PTCLDY    79  73  83 W6        29.79R
LORAIN-ELYRIA  PTCLDY    78  68  71 W6        29.78R
ASHTABULA      CLOUDY    75  72  90 CALM      29.80R
AKRON-CANTON   PTCLDY    79  72  79 W3        29.80S
WOOSTER        CLEAR     75  73  93 W6        29.81R
MANSFIELD      CLEAR     77  70  79 W6        29.83R
YOUNGSTOWN     MOCLDY    75  71  87 SW5       29.80R
$$

OHZ042-051>053-060>062-070>072-077>081-230200-
  SOUTHWEST OHIO

CITY           SKY/WX    TMP DP  RH WIND       PRES   REMARKS
CINC-COVINGTON TSTM      78  76  93 SW9G20    29.84R
CINC-LUNKEN    CLOUDY    82  75  79 W8        29.82S
HAMILTON       CLOUDY    84  75  74 NW3       29.83R HX  92
DAYTON         MOCLDY    79  71  76 NW5       29.84S
WRIGHT-PAT AFB NOT AVBL
DAYTON GENERAL MOCLDY    83  71  67 W5        29.83S
WILMINGTON     PTCLDY    82  71  69 NW7       29.83S
$$

OHZ036-037-039>041-045>050-054>059-063>069-073>076-082>088-230200-
  CENTRAL AND SOUTHEAST OHIO

CITY           SKY/WX    TMP DP  RH WIND       PRES   REMARKS
COLUMBUS       MOCLDY    80  72  76 W7        29.81R
OSU AIRPORT    CLEAR     78  72  81 W7        29.82R
BOLTON FIELD   PTCLDY    79  72  79 W3        29.83S
RICKENBACK AFB PTCLDY    79  72  78 W5        29.81S
NEWARK         CLOUDY    80  76  87 CALM      29.82R
MARION         CLEAR     79  70  74 W5        29.83R
LANCASTER      CLOUDY    77  71  82 W3        29.83R
ZANESVILLE     CLOUDY    76  72  87 SW6       29.82R
NEW PHILLY     NOT AVBL
$$




USA.gov is the U.S. government's official web portal to all federal, state and local government web resources and services.